THY555 HESH-LTAI

Flight info

Callsign THY555
Flight time N/A
Altitude 40000
Route KUPTI1L KUPTI L677 CVO A16 RASDA M855 DERYA
Aircraft A343/H-SDE2E3FGHIJ4J5M1RWXY/LB1D1

Departure

Time 2026-05-06 18:42
Airport Sharm El Sheikh International Airport (HESH)

Arrival

Time N/A
Airport Antalya International Airport (LTAI)
Time Latitude Longitude Altitude Speed Heading
2026-05-06 18:24 27.98083 34.39120 148 ft 0 kts 313°
2026-05-06 18:34 27.98069 34.39137 176 ft 4 kts 313°
2026-05-06 18:34 27.98054 34.39155 176 ft 3 kts 313°
2026-05-06 18:34 27.98038 34.39174 176 ft 4 kts 292°
2026-05-06 18:34 27.98042 34.39191 176 ft 4 kts 224°
2026-05-06 18:35 27.98061 34.39211 176 ft 4 kts 222°
2026-05-06 18:35 27.98071 34.39222 176 ft 0 kts 222°
2026-05-06 18:36 27.98060 34.39210 176 ft 8 kts 223°
2026-05-06 18:37 27.98012 34.39160 176 ft 11 kts 223°
2026-05-06 18:37 27.97972 34.39118 176 ft 12 kts 223°
2026-05-06 18:37 27.97876 34.39017 176 ft 16 kts 223°
2026-05-06 18:37 27.97792 34.38929 176 ft 18 kts 223°
2026-05-06 18:38 27.97697 34.38831 176 ft 19 kts 222°
2026-05-06 18:38 27.97593 34.38725 176 ft 21 kts 222°
2026-05-06 18:38 27.97481 34.38608 176 ft 23 kts 223°
2026-05-06 18:38 27.97362 34.38483 176 ft 24 kts 223°
2026-05-06 18:39 27.97235 34.38350 176 ft 25 kts 223°
2026-05-06 18:39 27.97105 34.38214 176 ft 26 kts 223°
2026-05-06 18:39 27.96998 34.38128 177 ft 11 kts 176°
2026-05-06 18:40 27.96940 34.38177 177 ft 1 kts 133°
2026-05-06 18:40 27.96927 34.38193 177 ft 8 kts 133°
2026-05-06 18:40 27.96889 34.38271 177 ft 12 kts 86°
2026-05-06 18:40 27.96906 34.38303 177 ft 5 kts 51°
2026-05-06 18:41 27.96936 34.38341 177 ft 8 kts 46°
2026-05-06 18:41 27.96951 34.38358 177 ft 0 kts 44°
2026-05-06 18:41 27.96952 34.38358 177 ft 1 kts 44°
2026-05-06 18:41 27.97093 34.38506 179 ft 68 kts 42°
2026-05-06 18:42 27.97661 34.39098 176 ft 150 kts 43°
2026-05-06 18:42 27.98507 34.40047 694 ft 183 kts 44°
2026-05-06 18:42 27.99480 34.40989 1685 ft 190 kts 27°
2026-05-06 18:42 28.00764 34.41654 2075 ft 220 kts 22°
2026-05-06 18:43 28.02243 34.42369 2739 ft 238 kts 22°
2026-05-06 18:43 28.03773 34.43161 3729 ft 244 kts 24°
2026-05-06 18:43 28.05321 34.44004 4750 ft 250 kts 25°
2026-05-06 18:43 28.06920 34.44898 5544 ft 263 kts 26°
2026-05-06 18:44 28.08014 34.45518 6147 ft 268 kts 26°
2026-05-06 18:44 28.09704 34.46484 7064 ft 275 kts 26°
2026-05-06 18:44 28.11432 34.47474 7939 ft 282 kts 25°
2026-05-06 18:44 28.13298 34.48241 8754 ft 290 kts
2026-05-06 18:45 28.15320 34.48436 9633 ft 294 kts 359°
2026-05-06 18:45 28.17387 34.48469 10376 ft 303 kts 355°
2026-05-06 18:45 28.19569 34.48432 10754 ft 323 kts 352°
2026-05-06 18:45 28.21771 34.47797 11208 ft 332 kts 332°
2026-05-06 18:46 28.23628 34.46227 11690 ft 338 kts 309°
2026-05-06 18:46 28.24887 34.43988 11894 ft 338 kts 296°
2026-05-06 18:46 28.25902 34.41594 11959 ft 338 kts 294°
2026-05-06 18:46 28.26898 34.39165 12053 ft 339 kts 293°
2026-05-06 18:47 28.27901 34.36743 12613 ft 341 kts 293°
2026-05-06 18:47 28.28921 34.34305 13382 ft 345 kts 294°
2026-05-06 18:47 28.29958 34.31840 14164 ft 348 kts 294°
2026-05-06 18:47 28.31005 34.29360 14976 ft 349 kts 294°
2026-05-06 18:48 28.32060 34.26860 15712 ft 352 kts 294°
2026-05-06 18:48 28.33124 34.24344 16481 ft 355 kts 294°
2026-05-06 18:48 28.34200 34.21800 17193 ft 360 kts 294°
2026-05-06 18:48 28.35291 34.19220 17880 ft 365 kts 294°
2026-05-06 18:49 28.36393 34.16608 18538 ft 369 kts 294°
2026-05-06 18:49 28.37508 34.13970 19232 ft 371 kts 294°
2026-05-06 18:49 28.38626 34.11325 19920 ft 374 kts 293°
2026-05-06 18:49 28.39753 34.08653 20604 ft 376 kts 293°
2026-05-06 18:50 28.40885 34.05971 21283 ft 378 kts 293°
2026-05-06 18:50 28.42026 34.03272 21911 ft 380 kts 293°
2026-05-06 18:50 28.43156 34.00589 22560 ft 383 kts 293°
2026-05-06 18:50 28.44308 33.97850 23146 ft 386 kts 293°
2026-05-06 18:51 28.45470 33.95086 23737 ft 388 kts 293°
2026-05-06 18:51 28.46641 33.92300 24212 ft 392 kts 294°
2026-05-06 18:51 28.47814 33.89498 24712 ft 393 kts 293°
2026-05-06 18:51 28.48995 33.86689 25255 ft 395 kts 293°
2026-05-06 18:52 28.50179 33.83868 25730 ft 397 kts 293°
2026-05-06 18:52 28.51374 33.81019 26273 ft 399 kts 292°
2026-05-06 18:52 28.52570 33.78165 26780 ft 401 kts 292°
2026-05-06 18:52 28.53769 33.75302 27268 ft 402 kts 292°
2026-05-06 18:53 28.54973 33.72425 27756 ft 404 kts 292°
2026-05-06 18:53 28.56184 33.69529 28215 ft 406 kts 292°
2026-05-06 18:53 28.57399 33.66621 28611 ft 409 kts 292°
2026-05-06 18:53 28.58625 33.63684 28969 ft 413 kts 292°
2026-05-06 18:54 28.59857 33.60728 29412 ft 415 kts 292°
2026-05-06 18:54 28.61079 33.57795 29849 ft 416 kts 292°
2026-05-06 18:54 28.62360 33.54829 30231 ft 420 kts 295°
2026-05-06 18:54 28.63916 33.51996 30569 ft 425 kts 301°
2026-05-06 18:55 28.65678 33.49283 30908 ft 428 kts 304°
2026-05-06 18:55 28.67535 33.46619 31239 ft 430 kts 305°
2026-05-06 18:55 28.69438 33.43977 31545 ft 433 kts 305°
2026-05-06 18:55 28.71359 33.41328 31852 ft 435 kts 305°
2026-05-06 18:56 28.73286 33.38662 32168 ft 436 kts 305°
2026-05-06 18:56 28.75209 33.35982 32518 ft 437 kts 305°
2026-05-06 18:56 28.77120 33.33302 32958 ft 435 kts 304°
2026-05-06 18:56 28.79020 33.30623 33384 ft 433 kts 304°
2026-05-06 18:57 28.80908 33.27952 33805 ft 432 kts 304°
2026-05-06 18:57 28.82789 33.25285 34181 ft 431 kts 304°
2026-05-06 18:57 28.84660 33.22628 34521 ft 430 kts 304°
2026-05-06 18:57 28.86533 33.19969 34846 ft 429 kts 304°
2026-05-06 18:58 28.88400 33.17314 35165 ft 428 kts 304°
2026-05-06 18:58 28.90261 33.14666 35463 ft 428 kts 304°
2026-05-06 18:58 28.92126 33.12013 35746 ft 428 kts 304°
2026-05-06 18:58 28.93986 33.09366 36037 ft 427 kts 304°
2026-05-06 18:59 28.95843 33.06721 36330 ft 427 kts 304°
2026-05-06 18:59 28.97699 33.04077 36635 ft 426 kts 303°
2026-05-06 18:59 28.99552 33.01436 36928 ft 426 kts 303°
2026-05-06 18:59 29.01403 32.98794 37202 ft 425 kts 303°
2026-05-06 19:00 29.03250 32.96158 37490 ft 425 kts 303°
2026-05-06 19:00 29.05070 32.93559 37771 ft 424 kts 303°
2026-05-06 19:00 29.06913 32.90923 38048 ft 424 kts 303°
2026-05-06 19:00 29.08751 32.88294 38336 ft 423 kts 303°
2026-05-06 19:01 29.10585 32.85671 38666 ft 421 kts 303°
2026-05-06 19:01 29.12408 32.83061 38900 ft 420 kts 303°
2026-05-06 19:01 29.14233 32.80445 39063 ft 421 kts 303°
2026-05-06 19:01 29.16059 32.77825 39221 ft 422 kts 303°
2026-05-06 19:02 29.17887 32.75202 39386 ft 422 kts 303°
2026-05-06 19:02 29.19717 32.72573 39550 ft 422 kts 303°
2026-05-06 19:02 29.21548 32.69942 39719 ft 423 kts 303°
2026-05-06 19:02 29.23382 32.67306 39877 ft 423 kts 303°
2026-05-06 19:03 29.25218 32.64665 40011 ft 424 kts 303°
2026-05-06 19:03 29.28925 32.59323 40044 ft 432 kts 303°
2026-05-06 19:04 29.32644 32.53933 40043 ft 430 kts 303°
2026-05-06 19:04 29.36327 32.48559 40049 ft 429 kts 303°
2026-05-06 19:05 29.40008 32.43178 40046 ft 429 kts 303°
2026-05-06 19:05 29.43697 32.37785 40050 ft 430 kts 303°
2026-05-06 19:06 29.47363 32.32420 40052 ft 430 kts 303°
2026-05-06 19:06 29.49034 32.29613 40047 ft 423 kts 291°
2026-05-06 19:06 29.49932 32.26459 40054 ft 413 kts 275°
2026-05-06 19:06 29.49923 32.23198 40052 ft 408 kts 258°
2026-05-06 19:07 29.48985 32.20141 39943 ft 410 kts 240°
2026-05-06 19:07 29.47137 32.17620 39655 ft 423 kts 221°
2026-05-06 19:07 29.44437 32.16092 39000 ft 453 kts 196°
2026-05-06 19:07 29.41171 32.16195 37553 ft 494 kts 167°